Location: El Gandul
(32.4984°N, 116.7135°W)
Time: 15:50:20
(UTC+00:00)

H-2A R/B - Pass Details

Date: 03 August 2024
Orbit: 731 x 832 km, 98.2° (Epoch: 08 September)

Event Time Altitude Azimuth Distance (km) Brightness Sun altitude
Rises 12:17:39 0° 5° (N) 3,165 5.7 -9.6°
Reaches altitude 10° 12:19:58 10° 1° (N) 2,246 4.8 -9.1°
Maximum altitude 12:24:44 52° 286° (WNW) 924 2.2 -8.2°
Drops below altitude 10° 12:29:34 10° 211° (SSW) 2,278 4.0 -7.3°
Enters shadow 12:31:43 - 206° (SSW) 3,124 4.7 -6.9°
